Location: Risskov
(56.1972°N, 10.2480°E)
Time: 15:00:30
(UTC+00:00)

N. Korean satellite - Pass Details

Date: 07 December 2022
Orbit: 407 x 441 km, 97.3° (Epoch: 05 February)

Event Time Altitude Azimuth Distance (km) Brightness Sun altitude
Rises 04:31:18 0° 17° (NNE) 2,525 10.4 -24.0°
Reaches altitude 10° 04:33:26 10° 24° (NNE) 1,638 9.4 -23.7°
Maximum altitude 04:36:51 48° 100° (E) 616 7.4 -23.2°
Drops below altitude 10° 04:40:12 10° 176° (S) 1,601 9.3 -22.7°
Sets 04:42:16 0° 182° (S) 2,460 10.2 -22.5°
